Time,TemperatureF,DewpointF,PressureIn,WindDirection,WindDirectionDegrees,WindSpeedMPH,WindSpeedGustMPH,Humidity,HourlyPrecipIn,Conditions,Clouds,dailyrainin,SoftwareType,DateUTC
2013-04-08 00:12:00,65.0,60.0,-100.00,South,175,5.0,9.0,85,0.00,,,0.00,,2013-04-08 05:12:00,
2013-04-08 00:22:00,65.0,60.0,-100.00,South,175,5.0,9.0,85,0.00,,,0.00,,2013-04-08 05:22:00,
2013-04-08 00:32:00,65.0,60.0,-100.00,South,175,5.0,9.0,85,0.00,,,0.00,,2013-04-08 05:32:00,
2013-04-08 00:42:00,65.0,60.0,-100.00,South,175,5.0,9.0,85,0.00,,,0.00,,2013-04-08 05:42:00,
2013-04-08 01:12:00,64.0,60.0,-100.00,South,178,6.0,11.0,87,0.00,,,0.00,,2013-04-08 06:12:00,
2013-04-08 01:22:00,64.0,60.0,-100.00,South,178,6.0,11.0,87,0.00,,,0.00,,2013-04-08 06:22:00,
2013-04-08 01:32:00,64.0,60.0,-100.00,South,178,6.0,11.0,87,0.00,,,0.00,,2013-04-08 06:32:00,
2013-04-08 01:42:00,64.0,60.0,-100.00,South,178,6.0,11.0,87,0.00,,,0.00,,2013-04-08 06:42:00,
2013-04-08 02:12:00,63.0,61.0,-100.00,South,176,4.0,7.0,93,0.00,,,0.00,,2013-04-08 07:12:00,
2013-04-08 02:22:00,63.0,61.0,-100.00,South,176,4.0,7.0,93,0.00,,,0.00,,2013-04-08 07:22:00,
2013-04-08 02:33:00,63.0,61.0,-100.00,South,176,4.0,7.0,93,0.00,,,0.00,,2013-04-08 07:33:00,
2013-04-08 02:42:00,63.0,61.0,-100.00,South,176,4.0,7.0,93,0.00,,,0.00,,2013-04-08 07:42:00,
2013-04-08 03:22:00,63.0,62.0,-100.00,SSE,168,5.0,9.0,95,0.00,,,0.00,,2013-04-08 08:22:00,
2013-04-08 03:33:00,63.0,62.0,-100.00,SSE,168,5.0,9.0,95,0.00,,,0.00,,2013-04-08 08:33:00,
2013-04-08 03:42:00,63.0,62.0,-100.00,SSE,168,5.0,9.0,95,0.00,,,0.00,,2013-04-08 08:42:00,
2013-04-08 04:12:00,64.0,62.0,-100.00,SSE,164,6.0,11.0,92,0.00,,,0.00,,2013-04-08 09:12:00,
2013-04-08 04:22:00,64.0,62.0,-100.00,SSE,164,6.0,11.0,92,0.00,,,0.00,,2013-04-08 09:22:00,
2013-04-08 04:33:00,64.0,62.0,-100.00,SSE,164,6.0,11.0,92,0.00,,,0.00,,2013-04-08 09:33:00,
2013-04-08 04:43:00,64.0,62.0,-100.00,SSE,164,6.0,11.0,92,0.00,,,0.00,,2013-04-08 09:43:00,
2013-04-08 05:13:00,64.0,62.0,-100.00,SSE,167,5.0,9.0,92,0.00,,,0.00,,2013-04-08 10:13:00,
2013-04-08 05:23:00,64.0,62.0,-100.00,SSE,167,5.0,9.0,92,0.00,,,0.00,,2013-04-08 10:23:00,
2013-04-08 05:33:00,64.0,62.0,-100.00,SSE,167,5.0,9.0,92,0.00,,,0.00,,2013-04-08 10:33:00,
2013-04-08 05:42:00,64.0,62.0,-100.00,SSE,167,5.0,9.0,92,0.00,,,0.00,,2013-04-08 10:42:00,
2013-04-08 06:12:00,65.0,62.0,-100.00,South,185,6.0,11.0,91,0.00,,,0.00,,2013-04-08 11:12:00,
2013-04-08 06:22:00,65.0,62.0,-100.00,South,185,6.0,11.0,91,0.00,,,0.00,,2013-04-08 11:22:00,
2013-04-08 06:32:00,65.0,62.0,-100.00,South,185,6.0,11.0,91,0.00,,,0.00,,2013-04-08 11:32:00,
2013-04-08 06:42:00,65.0,62.0,-100.00,South,185,6.0,11.0,91,0.00,,,0.00,,2013-04-08 11:42:00,
2013-04-08 07:12:00,66.0,63.0,-100.00,South,173,6.0,10.0,90,0.00,,,0.00,,2013-04-08 12:12:00,
2013-04-08 07:23:00,66.0,63.0,-100.00,South,173,6.0,10.0,90,0.00,,,0.00,,2013-04-08 12:23:00,
2013-04-08 07:33:00,66.0,63.0,-100.00,South,173,6.0,10.0,90,0.00,,,0.00,,2013-04-08 12:33:00,
2013-04-08 07:42:00,66.0,63.0,-100.00,South,173,6.0,10.0,90,0.00,,,0.00,,2013-04-08 12:42:00,
2013-04-08 08:12:00,66.0,63.0,-100.00,South,177,8.0,11.0,89,0.00,,,0.00,,2013-04-08 13:12:00,
2013-04-08 08:22:00,66.0,63.0,-100.00,South,177,8.0,11.0,89,0.00,,,0.00,,2013-04-08 13:22:00,
2013-04-08 08:32:00,66.0,63.0,-100.00,South,177,8.0,11.0,89,0.00,,,0.00,,2013-04-08 13:32:00,
2013-04-08 08:42:00,66.0,63.0,-100.00,South,177,8.0,11.0,89,0.00,,,0.00,,2013-04-08 13:42:00,
2013-04-08 09:12:00,68.0,63.0,-100.00,South,179,8.0,13.0,85,0.00,,,0.00,,2013-04-08 14:12:00,
2013-04-08 09:22:00,68.0,63.0,-100.00,South,179,8.0,13.0,85,0.00,,,0.00,,2013-04-08 14:22:00,
2013-04-08 09:32:00,68.0,63.0,-100.00,South,179,8.0,13.0,85,0.00,,,0.00,,2013-04-08 14:32:00,
2013-04-08 09:42:00,68.0,63.0,-100.00,South,179,8.0,13.0,85,0.00,,,0.00,,2013-04-08 14:42:00,
2013-04-08 10:12:00,70.0,63.0,-100.00,South,171,9.0,14.0,79,0.00,,,0.00,,2013-04-08 15:12:00,
2013-04-08 10:22:00,70.0,63.0,-100.00,South,171,9.0,14.0,79,0.00,,,0.00,,2013-04-08 15:22:00,
2013-04-08 10:33:00,70.0,63.0,-100.00,South,171,9.0,14.0,79,0.00,,,0.00,,2013-04-08 15:33:00,
2013-04-08 10:43:00,70.0,63.0,-100.00,South,171,9.0,14.0,79,0.00,,,0.00,,2013-04-08 15:43:00,
2013-04-08 11:13:00,74.0,61.0,-100.00,SSE,168,11.0,18.0,65,0.00,,,0.00,,2013-04-08 16:13:00,
2013-04-08 11:23:00,74.0,61.0,-100.00,SSE,168,11.0,18.0,65,0.00,,,0.00,,2013-04-08 16:23:00,
2013-04-08 11:32:00,74.0,61.0,-100.00,SSE,168,11.0,18.0,65,0.00,,,0.00,,2013-04-08 16:32:00,
2013-04-08 11:42:00,74.0,61.0,-100.00,SSE,168,11.0,18.0,65,0.00,,,0.00,,2013-04-08 16:42:00,
2013-04-08 12:12:00,75.0,60.0,-100.00,South,174,10.0,21.0,60,0.00,,,0.00,,2013-04-08 17:12:00,
2013-04-08 12:22:00,75.0,60.0,-100.00,South,174,10.0,21.0,60,0.00,,,0.00,,2013-04-08 17:22:00,
2013-04-08 12:32:00,75.0,60.0,-100.00,South,174,10.0,21.0,60,0.00,,,0.00,,2013-04-08 17:32:00,
2013-04-08 12:43:00,75.0,60.0,-100.00,South,174,10.0,21.0,60,0.00,,,0.00,,2013-04-08 17:43:00,
2013-04-08 13:12:00,78.0,61.0,-100.00,South,169,10.0,18.0,55,0.00,,,0.00,,2013-04-08 18:12:00,
2013-04-08 13:23:00,78.0,61.0,-100.00,South,169,10.0,18.0,55,0.00,,,0.00,,2013-04-08 18:23:00,
2013-04-08 13:32:00,78.0,61.0,-100.00,South,169,10.0,18.0,55,0.00,,,0.00,,2013-04-08 18:32:00,
2013-04-08 13:42:00,78.0,61.0,-100.00,South,169,10.0,18.0,55,0.00,,,0.00,,2013-04-08 18:42:00,
2013-04-08 14:12:00,77.0,60.0,-100.00,SSE,164,8.0,16.0,55,0.00,,,0.00,,2013-04-08 19:12:00,
2013-04-08 14:23:00,77.0,60.0,-100.00,SSE,164,8.0,16.0,55,0.00,,,0.00,,2013-04-08 19:23:00,
2013-04-08 14:33:00,77.0,60.0,-100.00,SSE,164,8.0,16.0,55,0.00,,,0.00,,2013-04-08 19:33:00,
2013-04-08 14:42:00,77.0,60.0,-100.00,SSE,164,8.0,16.0,55,0.00,,,0.00,,2013-04-08 19:42:00,
2013-04-08 15:12:00,75.0,60.0,-100.00,SSE,154,6.0,11.0,59,0.00,,,0.00,,2013-04-08 20:12:00,
2013-04-08 15:23:00,75.0,60.0,-100.00,SSE,154,6.0,11.0,59,0.00,,,0.00,,2013-04-08 20:23:00,
2013-04-08 15:33:00,75.0,60.0,-100.00,SSE,154,6.0,11.0,59,0.00,,,0.00,,2013-04-08 20:33:00,
2013-04-08 15:43:00,75.0,60.0,-100.00,SSE,154,6.0,11.0,59,0.00,,,0.00,,2013-04-08 20:43:00,
2013-04-08 16:12:00,77.0,61.0,-100.00,SSE,165,7.0,12.0,58,0.00,,,0.00,,2013-04-08 21:12:00,
2013-04-08 16:22:00,77.0,61.0,-100.00,SSE,165,7.0,12.0,58,0.00,,,0.00,,2013-04-08 21:22:00,
2013-04-08 16:32:00,77.0,61.0,-100.00,SSE,165,7.0,12.0,58,0.00,,,0.00,,2013-04-08 21:32:00,
2013-04-08 16:43:00,77.0,61.0,-100.00,SSE,165,7.0,12.0,58,0.00,,,0.00,,2013-04-08 21:43:00,
2013-04-08 17:13:00,79.0,60.0,-100.00,South,170,11.0,19.0,53,0.00,,,0.00,,2013-04-08 22:13:00,
2013-04-08 17:23:00,79.0,60.0,-100.00,South,170,11.0,19.0,53,0.00,,,0.00,,2013-04-08 22:23:00,
2013-04-08 17:32:00,79.0,60.0,-100.00,South,170,11.0,19.0,53,0.00,,,0.00,,2013-04-08 22:32:00,
2013-04-08 17:43:00,79.0,60.0,-100.00,South,170,11.0,19.0,53,0.00,,,0.00,,2013-04-08 22:43:00,
2013-04-08 18:12:00,77.0,57.0,-100.00,South,174,14.0,22.0,50,0.00,,,0.00,,2013-04-08 23:12:00,
2013-04-08 18:22:00,77.0,57.0,-100.00,South,174,14.0,22.0,50,0.00,,,0.00,,2013-04-08 23:22:00,
2013-04-08 18:32:00,77.0,57.0,-100.00,South,174,14.0,22.0,50,0.00,,,0.00,,2013-04-08 23:32:00,
2013-04-08 18:42:00,77.0,57.0,-100.00,South,174,14.0,22.0,50,0.00,,,0.00,,2013-04-08 23:42:00,
2013-04-08 19:12:00,76.0,59.0,-100.00,SSE,151,9.0,18.0,56,0.00,,,0.00,,2013-04-09 00:12:00,
2013-04-08 19:22:00,76.0,59.0,-100.00,SSE,151,9.0,18.0,56,0.00,,,0.00,,2013-04-09 00:22:00,
2013-04-08 19:32:00,76.0,59.0,-100.00,SSE,151,9.0,18.0,56,0.00,,,0.00,,2013-04-09 00:32:00,
2013-04-08 19:42:00,76.0,59.0,-100.00,SSE,151,9.0,18.0,56,0.00,,,0.00,,2013-04-09 00:42:00,
2013-04-08 20:12:00,72.0,60.0,-100.00,South,173,5.0,9.0,66,0.00,,,0.00,,2013-04-09 01:12:00,
2013-04-08 20:22:00,72.0,60.0,-100.00,South,173,5.0,9.0,66,0.00,,,0.00,,2013-04-09 01:22:00,
2013-04-08 20:33:00,72.0,60.0,-100.00,South,173,5.0,9.0,66,0.00,,,0.00,,2013-04-09 01:33:00,
2013-04-08 20:42:00,72.0,60.0,-100.00,South,173,5.0,9.0,66,0.00,,,0.00,,2013-04-09 01:42:00,
2013-04-08 21:13:00,70.0,62.0,-100.00,SSE,167,6.0,10.0,75,0.00,,,0.00,,2013-04-09 02:13:00,
2013-04-08 21:22:00,70.0,62.0,-100.00,SSE,167,6.0,10.0,75,0.00,,,0.00,,2013-04-09 02:22:00,
2013-04-08 21:32:00,70.0,62.0,-100.00,SSE,167,6.0,10.0,75,0.00,,,0.00,,2013-04-09 02:32:00,
2013-04-08 21:43:00,70.0,62.0,-100.00,SSE,167,6.0,10.0,75,0.00,,,0.00,,2013-04-09 02:43:00,
2013-04-08 22:12:00,70.0,62.0,-100.00,SSE,162,6.0,12.0,76,0.00,,,0.00,,2013-04-09 03:12:00,
2013-04-08 22:22:00,70.0,62.0,-100.00,SSE,162,6.0,12.0,76,0.00,,,0.00,,2013-04-09 03:22:00,
2013-04-08 22:33:00,70.0,62.0,-100.00,SSE,162,6.0,12.0,76,0.00,,,0.00,,2013-04-09 03:33:00,
2013-04-08 22:43:00,70.0,62.0,-100.00,SSE,162,6.0,12.0,76,0.00,,,0.00,,2013-04-09 03:43:00,
2013-04-08 23:13:00,69.0,63.0,-100.00,SSE,152,6.0,13.0,81,0.00,,,0.00,,2013-04-09 04:13:00,
2013-04-08 23:23:00,69.0,63.0,-100.00,SSE,152,6.0,13.0,81,0.00,,,0.00,,2013-04-09 04:23:00,
2013-04-08 23:32:00,69.0,63.0,-100.00,SSE,152,6.0,13.0,81,0.00,,,0.00,,2013-04-09 04:32:00,
2013-04-08 23:42:00,69.0,63.0,-100.00,SSE,152,6.0,13.0,81,0.00,,,0.00,,2013-04-09 04:42:00,